This demonstration page uses our WeatherBlox Daily Observations layout. Learn more.

41.55636, -103.73856

Hourly Observations for December 2, 2019

Temp ( °F °C ) Dew Point ( °F °C ) Humidity (%) Winds ( mph kmh ) Pressure ( in mb ) Visibility ( mi km ) Precip ( " mm )
12:58 am 00:58 Clear 24 -4.7 12 -11.2 61 61 SSW 7 11 30.31 1027 10 16.0934 0 0
1:58 am 01:58 Clear 21 -6.3 10 -12 64 64 SSW 9 15 30.32 1027 10 16.0934 0 0
2:58 am 02:58 Clear 25 -4 9 -13 50 50 SW 10 17 30.31 1027 10 16.0934 0 0
3:58 am 03:58 Clear 26 -3.2 8 -13.6 45 45 SW 13 20 30.28 1025 10 16.0934 0 0
4:58 am 04:58 Clear 26 -3.1 7 -13.7 44 44 SW 8 13 30.28 1025 10 16.0934 0 0
5:58 am 05:58 Clear 24 -4.4 8 -13.5 49 49 SW 17 28 30.24 1024 10 16.0934 0 0
6:58 am 06:58 Clear 24 -4.3 8 -13.5 49 49 SW 16 26 30.21 1023 10 16.0934 0 0
7:58 am 07:58 Clear 27 -2.7 8 -13.3 44 44 WSW 5 7 30.2 1023 10 16.0934 0 0
8:58 am 08:58 Clear 26 -3.4 10 -12.5 50 50 WSW 6 9 30.19 1022 10 16.0934 0 0
9:58 am 09:58 Clear 28 -2.5 10 -12.1 48 48 W 6 9 30.18 1022 10 16.0934 0 0
10:58 am 10:58 Clear 24 -4.4 9 -12.6 53 53 SW 8 13 30.18 1022 10 16.0934 0 0
11:58 am 11:58 Clear 26 -3.4 12 -11.3 55 55 W 5 7 30.17 1022 10 16.0934 0 0
12:58 pm 12:58 Clear 24 -4.4 10 -12 56 56 SW 7 11 30.17 1022 10 16.0934 0 0
1:58 pm 13:58 Clear 27 -2.8 15 -9.6 60 60 SW 8 13 30.17 1022 10 16.0934 0 0
2:58 pm 14:58 Sunny 28 -2.2 17 -8.3 63 63 SW 10 17 30.17 1022 10 16.0934 0 0
3:58 pm 15:58 Sunny 39 3.7 23 -5.2 53 53 NW 12 19 30.14 1021 10 16.0934 0 0
4:58 pm 16:58 Mostly Sunny 36 2 25 -3.7 66 66 Calm 30.16 1021 10 16.0934 0 0
5:58 pm 17:58 Mostly Sunny 37 2.7 26 -3.5 64 64 WSW 8 13 30.12 1020 10 16.0934 0 0
6:58 pm 18:58 Sunny 44 6.8 26 -3.1 50 50 WNW 22 35 30.08 1019 10 16.0934 0 0
7:58 pm 19:58 Sunny 42 5.4 28 -2.2 58 58 W 7 11 30.07 1018 10 16.0934 0 0
8:58 pm 20:58 Mostly Sunny 44 6.5 27 -3 51 51 W 7 11 30.05 1018 10 16.0934 0 0
9:58 pm 21:58 Sunny 40 4.6 29 -1.9 63 63 W 8 13 30.08 1019 10 16.0934 0 0
10:58 pm 22:58 Sunny 43 5.9 28 -2.3 56 56 NW 7 11 30.07 1018 10 16.0934 0 0
11:58 pm 23:58 Mostly Cloudy 40 4.4 29 -1.7 65 65 W 3 6 30.09 1019 10 16.0934 0 0

Powered by AerisWeather